Time,TemperatureF,DewpointF,PressureIn,WindDirection,WindDirectionDegrees,WindSpeedMPH,WindSpeedGustMPH,Humidity,HourlyPrecipIn,Conditions,Clouds,dailyrainin,SoftwareType,DateUTC
2013-02-11 00:00:00,48.3,41.1,29.92,WNW,300,0.0,3.0,76,0.00,,,0.04,Wunderground v.1.13,2013-02-11 05:00:00,
2013-02-11 00:10:00,50.0,41.7,29.89,SE,129,2.0,2.0,73,0.00,,,0.00,Wunderground v.1.13,2013-02-11 05:10:00,
2013-02-11 00:20:00,50.4,41.7,29.89,West,280,2.0,4.0,72,0.00,,,0.00,Wunderground v.1.13,2013-02-11 05:20:00,
2013-02-11 00:23:00,50.1,41.4,29.89,WNW,292,2.0,9.0,72,0.00,,,-99.99,WeatherLink 6.0.2,2013-02-11 05:23:00,
2013-02-11 00:30:00,51.2,42.1,29.89,WNW,292,2.0,4.0,71,0.00,,,0.00,Wunderground v.1.13,2013-02-11 05:30:00,
2013-02-11 00:40:00,51.7,42.6,29.88,West,277,2.0,5.0,71,0.00,,,0.00,Wunderground v.1.13,2013-02-11 05:40:00,
2013-02-11 00:50:00,52.0,41.8,29.89,North,355,2.0,2.0,68,0.00,,,0.00,Wunderground v.1.13,2013-02-11 05:50:00,
2013-02-11 01:00:00,52.9,41.8,29.89,NNW,327,4.0,4.0,66,0.00,,,0.00,Wunderground v.1.13,2013-02-11 06:00:00,
2013-02-11 01:10:00,53.1,42.0,29.87,NW,306,3.0,6.0,66,0.00,,,0.00,Wunderground v.1.13,2013-02-11 06:10:00,
2013-02-11 01:20:00,53.1,42.4,29.86,West,276,3.0,3.0,67,0.00,,,0.00,Wunderground v.1.13,2013-02-11 06:20:00,
2013-02-11 01:30:00,53.0,42.7,29.86,WNW,295,3.0,3.0,68,0.00,,,0.00,Wunderground v.1.13,2013-02-11 06:30:00,
2013-02-11 01:40:00,53.2,42.9,29.85,WNW,293,4.0,4.0,68,0.00,,,0.00,Wunderground v.1.13,2013-02-11 06:40:00,
2013-02-11 01:50:00,53.2,42.5,29.85,WNW,286,2.0,2.0,67,0.00,,,0.00,Wunderground v.1.13,2013-02-11 06:50:00,
2013-02-11 02:00:00,53.5,42.8,29.85,NNW,336,2.0,2.0,67,0.00,,,0.00,Wunderground v.1.13,2013-02-11 07:00:00,
2013-02-11 02:10:00,53.5,42.8,29.85,WNW,290,2.0,2.0,67,0.00,,,0.00,Wunderground v.1.13,2013-02-11 07:10:00,
2013-02-11 02:20:00,53.9,43.2,29.85,West,274,3.0,3.0,67,0.00,,,0.00,Wunderground v.1.13,2013-02-11 07:20:00,
2013-02-11 02:29:00,53.9,43.6,29.84,WNW,301,1.0,2.0,68,0.00,,,0.00,Wunderground v.1.13,2013-02-11 07:29:00,
2013-02-11 02:30:00,53.9,43.6,29.84,WNW,292,1.0,3.0,68,0.00,,,-99.99,WeatherLink 6.0.2,2013-02-11 07:30:00,
2013-02-11 02:40:00,53.7,43.8,29.84,West,272,1.0,3.0,69,0.00,,,0.00,Wunderground v.1.13,2013-02-11 07:40:00,
2013-02-11 02:50:00,54.1,43.8,29.84,WNW,284,2.0,3.0,68,0.00,,,0.00,Wunderground v.1.13,2013-02-11 07:50:00,
2013-02-11 03:00:00,54.3,44.0,29.84,NW,310,1.0,1.0,68,0.00,,,0.00,Wunderground v.1.13,2013-02-11 08:00:00,
2013-02-11 03:10:00,54.3,44.0,29.84,NW,309,1.0,2.0,68,0.00,,,0.00,Wunderground v.1.13,2013-02-11 08:10:00,
2013-02-11 03:20:00,54.6,44.2,29.84,NW,319,1.0,3.0,68,0.00,,,0.00,Wunderground v.1.13,2013-02-11 08:20:00,
2013-02-11 03:30:00,54.9,44.1,29.84,NNW,343,1.0,1.0,67,0.00,,,0.00,Wunderground v.1.13,2013-02-11 08:30:00,
2013-02-11 03:40:00,55.3,44.9,29.84,North,5,1.0,3.0,68,0.00,,,0.00,Wunderground v.1.13,2013-02-11 08:40:00,
2013-02-11 03:50:00,56.3,45.5,29.82,NNW,347,3.0,7.0,67,0.00,,,0.00,Wunderground v.1.13,2013-02-11 08:50:00,
2013-02-11 04:00:00,56.3,45.1,29.83,NW,304,3.0,3.0,66,0.00,,,0.00,Wunderground v.1.13,2013-02-11 09:00:00,
2013-02-11 04:10:00,56.1,44.9,29.82,NNE,28,2.0,2.0,66,0.00,,,0.00,Wunderground v.1.13,2013-02-11 09:10:00,
2013-02-11 04:20:00,55.8,45.0,29.83,NW,309,3.0,5.0,67,0.00,,,0.00,Wunderground v.1.13,2013-02-11 09:20:00,
2013-02-11 04:30:00,56.0,45.2,29.83,NW,314,3.0,4.0,67,0.00,,,0.00,Wunderground v.1.13,2013-02-11 09:30:00,
2013-02-11 04:40:00,55.9,45.5,29.84,WNW,297,1.0,12.0,68,0.00,,,0.00,Wunderground v.1.13,2013-02-11 09:40:00,
2013-02-11 04:49:00,56.1,45.3,29.84,NNW,340,3.0,5.0,67,0.00,,,0.00,Wunderground v.1.13,2013-02-11 09:49:00,
2013-02-11 05:00:00,56.1,45.7,29.84,NW,311,2.0,2.0,68,0.00,,,0.00,Wunderground v.1.13,2013-02-11 10:00:00,
2013-02-11 05:10:00,56.0,45.6,29.84,NW,313,2.0,2.0,68,0.00,,,0.00,Wunderground v.1.13,2013-02-11 10:10:00,
2013-02-11 05:20:00,56.1,45.7,29.83,North,5,3.0,3.0,68,0.00,,,0.00,Wunderground v.1.13,2013-02-11 10:20:00,
2013-02-11 05:30:00,56.0,46.0,29.83,NW,309,1.0,1.0,69,0.00,,,0.00,Wunderground v.1.13,2013-02-11 10:30:00,
2013-02-11 05:40:00,56.2,46.2,29.83,NW,315,1.0,1.0,69,0.00,,,0.00,Wunderground v.1.13,2013-02-11 10:40:00,
2013-02-11 05:50:00,56.2,46.2,29.83,NNE,26,2.0,2.0,69,0.00,,,0.00,Wunderground v.1.13,2013-02-11 10:50:00,
2013-02-11 06:00:00,56.6,46.5,29.83,North,360,2.0,2.0,69,0.00,,,0.00,Wunderground v.1.13,2013-02-11 11:00:00,
2013-02-11 06:10:00,56.8,46.3,29.83,NW,316,2.0,3.0,68,0.00,,,0.00,Wunderground v.1.13,2013-02-11 11:10:00,
2013-02-11 06:20:00,57.1,46.6,29.83,NNW,347,2.0,2.0,68,0.00,,,0.00,Wunderground v.1.13,2013-02-11 11:20:00,
2013-02-11 06:30:00,57.3,47.2,29.82,North,10,2.0,2.0,69,0.00,,,0.00,Wunderground v.1.13,2013-02-11 11:30:00,
2013-02-11 06:40:00,57.5,47.4,29.82,WSW,244,2.0,2.0,69,0.00,,,0.00,Wunderground v.1.13,2013-02-11 11:40:00,
2013-02-11 06:50:00,57.6,47.5,29.82,NNW,330,2.0,4.0,69,0.00,,,0.00,Wunderground v.1.13,2013-02-11 11:50:00,
2013-02-11 07:00:00,57.5,48.5,29.82,NNW,327,3.0,3.0,72,0.00,,,0.00,Wunderground v.1.13,2013-02-11 12:00:00,
2013-02-11 07:10:00,57.0,48.4,29.83,North,351,3.0,3.0,73,0.00,,,0.01,Wunderground v.1.13,2013-02-11 12:10:00,
2013-02-11 07:20:00,56.3,49.5,29.83,North,360,2.0,2.0,78,0.00,,,0.01,Wunderground v.1.13,2013-02-11 12:20:00,
2013-02-11 07:30:00,55.5,49.4,29.83,NW,315,0.0,1.0,80,0.00,,,0.01,Wunderground v.1.13,2013-02-11 12:30:00,
2013-02-11 07:40:00,55.4,49.7,29.84,WNW,298,1.0,1.0,81,0.00,,,0.01,Wunderground v.1.13,2013-02-11 12:40:00,
2013-02-11 07:50:00,55.2,49.5,29.84,NNE,23,1.0,1.0,81,0.00,,,0.01,Wunderground v.1.13,2013-02-11 12:50:00,
2013-02-11 08:00:00,55.1,49.4,29.84,North,355,0.0,0.0,81,0.00,,,0.01,Wunderground v.1.13,2013-02-11 13:00:00,
2013-02-11 08:10:00,55.6,49.5,29.84,NNW,328,1.0,1.0,80,0.00,,,0.01,Wunderground v.1.13,2013-02-11 13:10:00,
2013-02-11 08:20:00,55.9,49.8,29.84,NW,318,0.0,0.0,80,0.00,,,0.01,Wunderground v.1.13,2013-02-11 13:20:00,
2013-02-11 08:30:00,56.3,49.9,29.85,NW,321,1.0,2.0,79,0.00,,,0.01,Wunderground v.1.13,2013-02-11 13:30:00,
2013-02-11 08:40:00,56.9,50.1,29.85,NW,309,2.0,2.0,78,0.00,,,0.01,Wunderground v.1.13,2013-02-11 13:40:00,
2013-02-11 08:50:00,56.9,50.5,29.84,WNW,303,2.0,2.0,79,0.00,,,0.01,Wunderground v.1.13,2013-02-11 13:50:00,
2013-02-11 09:00:00,57.1,50.6,29.84,North,350,2.0,3.0,79,0.00,,,0.01,Wunderground v.1.13,2013-02-11 14:00:00,
2013-02-11 09:10:00,57.3,50.8,29.85,NNW,331,2.0,2.0,79,0.00,,,0.01,Wunderground v.1.13,2013-02-11 14:10:00,
2013-02-11 09:20:00,57.7,51.2,29.84,NNW,344,3.0,3.0,79,0.00,,,0.01,Wunderground v.1.13,2013-02-11 14:20:00,
2013-02-11 09:29:00,57.8,51.3,29.84,WNW,288,2.0,4.0,79,0.00,,,0.01,Wunderground v.1.13,2013-02-11 14:29:00,
2013-02-11 09:30:00,57.8,51.7,29.84,NW,315,3.0,6.0,80,0.00,,,-99.99,WeatherLink 6.0.2,2013-02-11 14:30:00,
2013-02-11 09:40:00,57.9,51.4,29.84,NNW,348,3.0,3.0,79,0.00,,,0.01,Wunderground v.1.13,2013-02-11 14:40:00,
2013-02-11 09:50:00,58.3,51.5,29.83,NW,308,2.0,2.0,78,0.00,,,0.01,Wunderground v.1.13,2013-02-11 14:50:00,
2013-02-11 10:00:00,58.7,51.2,29.83,North,355,3.0,3.0,76,0.00,,,0.01,Wunderground v.1.13,2013-02-11 15:00:00,
2013-02-11 10:10:00,59.6,51.7,29.82,NNW,335,3.0,3.0,75,0.00,,,0.01,Wunderground v.1.13,2013-02-11 15:10:00,
2013-02-11 10:20:00,59.9,51.6,29.82,North,360,3.0,4.0,74,0.00,,,0.01,Wunderground v.1.13,2013-02-11 15:20:00,
2013-02-11 10:30:00,60.6,50.8,29.82,NW,319,3.0,3.0,70,0.00,,,0.01,Wunderground v.1.13,2013-02-11 15:30:00,
2013-02-11 10:40:00,61.1,50.1,29.81,NE,52,5.0,5.0,67,0.00,,,0.01,Wunderground v.1.13,2013-02-11 15:40:00,
2013-02-11 10:50:00,61.8,50.3,29.80,North,5,3.0,3.0,66,0.00,,,0.01,Wunderground v.1.13,2013-02-11 15:50:00,
2013-02-11 11:00:00,61.9,48.3,29.80,NW,306,4.0,6.0,61,0.00,,,0.01,Wunderground v.1.13,2013-02-11 16:00:00,
2013-02-11 11:10:00,62.0,46.6,29.80,NNW,336,6.0,6.0,57,0.00,,,0.01,Wunderground v.1.13,2013-02-11 16:10:00,
2013-02-11 11:20:00,62.3,46.9,29.79,NNE,13,4.0,4.0,57,0.00,,,0.01,Wunderground v.1.13,2013-02-11 16:20:00,
2013-02-11 11:30:00,62.4,46.5,29.80,North,355,4.0,12.0,56,0.00,,,0.01,Wunderground v.1.13,2013-02-11 16:30:00,
2013-02-11 11:40:00,62.5,46.6,29.79,NE,35,5.0,5.0,56,0.00,,,0.01,Wunderground v.1.13,2013-02-11 16:40:00,
2013-02-11 11:50:00,62.9,46.5,29.79,NE,40,4.0,4.0,55,0.00,,,0.01,Wunderground v.1.13,2013-02-11 16:50:00,
2013-02-11 12:00:00,63.3,46.4,29.78,ESE,112,6.0,6.0,54,0.00,,,0.01,Wunderground v.1.13,2013-02-11 17:00:00,
2013-02-11 12:10:00,63.2,46.3,29.78,East,85,4.0,10.0,54,0.00,,,0.01,Wunderground v.1.13,2013-02-11 17:10:00,
2013-02-11 12:20:00,64.0,45.5,29.77,ENE,67,5.0,9.0,51,0.00,,,0.01,Wunderground v.1.13,2013-02-11 17:20:00,
2013-02-11 12:30:00,64.4,45.3,29.77,North,5,3.0,3.0,50,0.00,,,0.01,Wunderground v.1.13,2013-02-11 17:30:00,
2013-02-11 12:40:00,64.6,44.5,29.76,ENE,68,5.0,5.0,48,0.00,,,0.01,Wunderground v.1.13,2013-02-11 17:40:00,
2013-02-11 12:50:00,63.3,42.7,29.76,East,99,5.0,13.0,47,0.00,,,0.01,Wunderground v.1.13,2013-02-11 17:50:00,
2013-02-11 13:00:00,64.0,42.2,29.75,East,84,4.0,14.0,45,0.00,,,0.01,Wunderground v.1.13,2013-02-11 18:00:00,
2013-02-11 13:10:00,64.2,36.7,29.75,East,84,6.0,11.0,36,0.00,,,0.01,Wunderground v.1.13,2013-02-11 18:10:00,
2013-02-11 13:20:00,64.0,35.0,29.74,ENE,67,6.0,6.0,34,0.00,,,0.01,Wunderground v.1.13,2013-02-11 18:20:00,
2013-02-11 13:29:00,64.1,35.1,29.74,ENE,73,6.0,7.0,34,0.00,,,0.01,Wunderground v.1.13,2013-02-11 18:29:00,
2013-02-11 13:30:00,64.0,32.7,29.74,ENE,67,6.0,20.0,31,0.00,,,-99.99,WeatherLink 6.0.2,2013-02-11 18:30:00,
2013-02-11 13:40:00,64.4,34.6,29.73,ENE,66,5.0,7.0,33,0.00,,,0.01,Wunderground v.1.13,2013-02-11 18:40:00,
2013-02-11 13:49:00,64.0,33.5,29.73,SE,142,5.0,5.0,32,0.00,,,0.01,Wunderground v.1.13,2013-02-11 18:49:00,
2013-02-11 14:00:00,64.9,34.3,29.74,NE,47,4.0,4.0,32,0.00,,,0.01,Wunderground v.1.13,2013-02-11 19:00:00,
2013-02-11 14:09:00,65.0,34.4,29.74,East,82,6.0,6.0,32,0.00,,,0.01,Wunderground v.1.13,2013-02-11 19:09:00,
2013-02-11 14:20:00,64.5,33.2,29.75,East,86,4.0,5.0,31,0.00,,,0.01,Wunderground v.1.13,2013-02-11 19:20:00,
2013-02-11 14:30:00,63.8,32.6,29.75,ESE,105,5.0,9.0,31,0.00,,,0.01,Wunderground v.1.13,2013-02-11 19:30:00,
2013-02-11 14:40:00,63.8,30.0,29.75,NNW,331,5.0,11.0,28,0.00,,,0.01,Wunderground v.1.13,2013-02-11 19:40:00,
2013-02-11 14:50:00,63.6,29.9,29.75,NE,48,5.0,5.0,28,0.00,,,0.01,Wunderground v.1.13,2013-02-11 19:50:00,
2013-02-11 15:00:00,63.4,29.7,29.76,ESE,105,4.0,9.0,28,0.00,,,0.01,Wunderground v.1.13,2013-02-11 20:00:00,
2013-02-11 15:10:00,63.1,27.6,29.76,East,95,5.0,5.0,26,0.00,,,0.01,Wunderground v.1.13,2013-02-11 20:10:00,
2013-02-11 15:20:00,62.9,31.0,29.75,NNE,17,4.0,6.0,30,0.00,,,0.01,Wunderground v.1.13,2013-02-11 20:20:00,
2013-02-11 15:29:00,62.6,27.2,29.76,East,80,6.0,9.0,26,0.00,,,0.01,Wunderground v.1.13,2013-02-11 20:29:00,
2013-02-11 15:30:00,62.7,28.2,29.76,North,0,5.0,14.0,27,0.00,,,-99.99,WeatherLink 6.0.2,2013-02-11 20:30:00,
2013-02-11 15:40:00,62.4,29.7,29.75,West,265,5.0,5.0,29,0.00,,,0.01,Wunderground v.1.13,2013-02-11 20:40:00,
2013-02-11 15:50:00,62.1,28.6,29.75,North,355,3.0,5.0,28,0.00,,,0.01,Wunderground v.1.13,2013-02-11 20:50:00,
2013-02-11 16:00:00,61.8,30.0,29.75,NE,51,3.0,3.0,30,0.00,,,0.01,Wunderground v.1.13,2013-02-11 21:00:00,
2013-02-11 16:10:00,61.4,30.5,29.76,NE,46,4.0,4.0,31,0.00,,,0.01,Wunderground v.1.13,2013-02-11 21:10:00,
2013-02-11 16:20:00,60.8,29.1,29.75,ESE,104,4.0,4.0,30,0.00,,,0.01,Wunderground v.1.13,2013-02-11 21:20:00,
2013-02-11 16:30:00,60.7,28.2,29.75,NE,49,4.0,4.0,29,0.00,,,0.01,Wunderground v.1.13,2013-02-11 21:30:00,
2013-02-11 16:40:00,60.5,28.1,29.75,ESE,115,4.0,6.0,29,0.00,,,0.01,Wunderground v.1.13,2013-02-11 21:40:00,
2013-02-11 16:50:00,59.6,25.5,29.76,East,93,5.0,5.0,27,0.00,,,0.01,Wunderground v.1.13,2013-02-11 21:50:00,
2013-02-11 17:00:00,59.4,27.1,29.75,NE,38,5.0,5.0,29,0.00,,,0.01,Wunderground v.1.13,2013-02-11 22:00:00,
2013-02-11 17:10:00,59.0,25.9,29.76,East,91,3.0,3.0,28,0.00,,,0.01,Wunderground v.1.13,2013-02-11 22:10:00,
2013-02-11 17:20:00,58.9,25.8,29.76,NE,42,3.0,3.0,28,0.00,,,0.01,Wunderground v.1.13,2013-02-11 22:20:00,
2013-02-11 17:29:00,58.1,28.4,29.77,ENE,62,3.0,5.0,32,0.00,,,0.01,Wunderground v.1.13,2013-02-11 22:29:00,
2013-02-11 17:30:00,58.3,27.0,29.76,East,90,4.0,14.0,30,0.00,,,-99.99,WeatherLink 6.0.2,2013-02-11 22:30:00,
2013-02-11 17:40:00,57.7,27.2,29.77,ENE,67,3.0,3.0,31,0.00,,,0.01,Wunderground v.1.13,2013-02-11 22:40:00,
2013-02-11 17:50:00,57.2,26.8,29.77,NE,42,2.0,3.0,31,0.00,,,0.01,Wunderground v.1.13,2013-02-11 22:50:00,
2013-02-11 18:00:00,56.8,26.5,29.77,ESE,103,2.0,4.0,31,0.00,,,0.01,Wunderground v.1.13,2013-02-11 23:00:00,
2013-02-11 18:10:00,56.5,25.4,29.78,ESE,121,3.0,6.0,30,0.00,,,0.01,Wunderground v.1.13,2013-02-11 23:10:00,
2013-02-11 18:20:00,56.3,24.4,29.79,ESE,104,4.0,4.0,29,0.00,,,0.01,Wunderground v.1.13,2013-02-11 23:20:00,
2013-02-11 18:30:00,55.6,25.4,29.79,ESE,119,3.0,3.0,31,0.00,,,0.01,Wunderground v.1.13,2013-02-11 23:30:00,
2013-02-11 18:40:00,54.8,25.5,29.79,ESE,111,3.0,6.0,32,0.00,,,0.01,Wunderground v.1.13,2013-02-11 23:40:00,
2013-02-11 18:50:00,55.0,24.1,29.80,East,87,4.0,4.0,30,0.00,,,0.01,Wunderground v.1.13,2013-02-11 23:50:00,
2013-02-11 19:00:00,54.5,23.7,29.81,East,87,3.0,5.0,30,0.00,,,0.01,Wunderground v.1.13,2013-02-12 00:00:00,
2013-02-11 19:10:00,54.0,24.8,29.83,ESE,103,4.0,4.0,32,0.00,,,0.01,Wunderground v.1.13,2013-02-12 00:10:00,
2013-02-11 19:20:00,53.9,23.9,29.83,NE,54,3.0,3.0,31,0.00,,,0.01,Wunderground v.1.13,2013-02-12 00:20:00,
2013-02-11 19:30:00,53.5,23.6,29.83,ENE,59,3.0,3.0,31,0.00,,,0.01,Wunderground v.1.13,2013-02-12 00:30:00,
2013-02-11 19:40:00,52.9,24.5,29.83,East,95,2.0,2.0,33,0.00,,,0.01,Wunderground v.1.13,2013-02-12 00:40:00,
2013-02-11 19:50:00,52.2,25.3,29.85,East,100,3.0,4.0,35,0.00,,,0.01,Wunderground v.1.13,2013-02-12 00:50:00,
2013-02-11 20:00:00,52.3,25.4,29.86,East,90,6.0,6.0,35,0.00,,,0.01,Wunderground v.1.13,2013-02-12 01:00:00,
2013-02-11 20:10:00,52.0,26.5,29.86,ENE,58,6.0,9.0,37,0.00,,,0.01,Wunderground v.1.13,2013-02-12 01:10:00,
2013-02-11 20:20:00,51.3,25.9,29.86,East,96,5.0,7.0,37,0.00,,,0.01,Wunderground v.1.13,2013-02-12 01:20:00,
2013-02-11 20:30:00,51.0,26.3,29.87,ESE,107,4.0,5.0,38,0.00,,,0.01,Wunderground v.1.13,2013-02-12 01:30:00,
2013-02-11 20:40:00,50.9,27.4,29.87,East,83,7.0,7.0,40,0.00,,,0.01,Wunderground v.1.13,2013-02-12 01:40:00,
2013-02-11 20:50:00,49.9,27.7,29.88,East,88,6.0,7.0,42,0.00,,,0.01,Wunderground v.1.13,2013-02-12 01:50:00,
2013-02-11 20:59:00,49.7,28.1,29.89,ENE,70,4.0,4.0,43,0.00,,,0.01,Wunderground v.1.13,2013-02-12 01:59:00,
2013-02-11 21:00:00,49.7,28.6,29.89,East,90,4.0,10.0,44,0.00,,,-99.99,WeatherLink 6.0.2,2013-02-12 02:00:00,
2013-02-11 21:10:00,49.1,28.7,29.89,ENE,77,4.0,4.0,45,0.00,,,0.01,Wunderground v.1.13,2013-02-12 02:10:00,
2013-02-11 21:19:00,48.2,28.4,29.91,ENE,76,2.0,3.0,46,0.00,,,0.01,Wunderground v.1.13,2013-02-12 02:19:00,
2013-02-11 21:30:00,48.2,28.4,29.91,East,98,4.0,4.0,46,0.00,,,0.01,Wunderground v.1.13,2013-02-12 02:30:00,
2013-02-11 21:39:00,48.2,28.9,29.92,NE,53,5.0,5.0,47,0.00,,,0.01,Wunderground v.1.13,2013-02-12 02:39:00,
2013-02-11 21:50:00,47.7,28.9,29.92,ESE,108,4.0,5.0,48,0.00,,,0.01,Wunderground v.1.13,2013-02-12 02:50:00,
2013-02-11 22:00:00,47.5,29.8,29.93,East,86,4.0,4.0,50,0.00,,,0.01,Wunderground v.1.13,2013-02-12 03:00:00,
2013-02-11 22:10:00,47.3,29.1,29.92,ESE,116,3.0,5.0,49,0.00,,,0.01,Wunderground v.1.13,2013-02-12 03:10:00,
2013-02-11 22:20:00,47.5,29.8,29.92,ESE,114,4.0,6.0,50,0.00,,,0.01,Wunderground v.1.13,2013-02-12 03:20:00,
2013-02-11 22:30:00,47.4,28.7,29.93,East,98,5.0,5.0,48,0.00,,,0.01,Wunderground v.1.13,2013-02-12 03:30:00,
2013-02-11 22:40:00,47.0,29.8,29.93,NE,36,4.0,5.0,51,0.00,,,0.01,Wunderground v.1.13,2013-02-12 03:40:00,
2013-02-11 22:50:00,46.8,29.1,29.94,ESE,113,5.0,7.0,50,0.00,,,0.01,Wunderground v.1.13,2013-02-12 03:50:00,
2013-02-11 23:00:00,46.7,28.5,29.95,North,5,6.0,6.0,49,0.00,,,0.01,Wunderground v.1.13,2013-02-12 04:00:00,
2013-02-11 23:10:00,46.4,28.8,29.95,ESE,113,4.0,4.0,50,0.00,,,0.01,Wunderground v.1.13,2013-02-12 04:10:00,
2013-02-11 23:20:00,45.9,28.8,29.95,East,97,4.0,4.0,51,0.00,,,0.01,Wunderground v.1.13,2013-02-12 04:20:00,
2013-02-11 23:30:00,46.2,28.6,29.95,East,85,4.0,4.0,50,0.00,,,0.01,Wunderground v.1.13,2013-02-12 04:30:00,
2013-02-11 23:40:00,46.1,29.0,29.95,East,86,3.0,3.0,51,0.00,,,0.01,Wunderground v.1.13,2013-02-12 04:40:00,
2013-02-11 23:49:00,45.7,28.6,29.96,ENE,75,3.0,3.0,51,0.00,,,0.01,Wunderground v.1.13,2013-02-12 04:49:00,